Mattaponi, VA

2:53 PM EST on January 21, 2017 (GMT -0500)
West Point

Weather History for KFYJ - October, 2013

Change the Weather History Date:

Sunday, October 6, 2013

  Actual Average (KJGG) Record (KJGG)
Temperature  
Mean Temperature 79 °F -  
Max Temperature 89 °F 75 °F 95 °F (1954)
Min Temperature 69 °F 50 °F 32 °F (1965)
Cooling Degree Days 14    
Growing Degree Days 29 (Base 50)    
Moisture  
Dew Point 64 °F    
Average Humidity 65    
Maximum Humidity 83    
Minimum Humidity 38    
Precipitation  
Precipitation 0.00 in - - ()
Sea Level Pressure  
Sea Level Pressure 30.03 in    
Wind  
Wind Speed 4 mph (SSE)    
Max Wind Speed 12 mph    
Max Gust Speed 16 mph    
Visibility 10 miles    
Events      
Averages and records for this station are not official NWS values.
T = Trace of Precipitation, MM = Missing Value Source: NWS Daily Summary

Daily Weather History Graph

Daily Weather History Graph

Search for Another Location

Airport or City:

Trip Planner

Search our weather history database for the weather conditions in past years. The results will help you decide how hot, cold, wet, or windy it might be!

Date:

Astronomy

Oct. 06, 2013 Rise Set
Actual Time 7:07 AM EDT 6:42 PM EDT
Civil Twilight 6:41 AM EDT 7:08 PM EDT
Nautical Twilight 6:10 AM EDT 7:38 PM EDT
Astronomical Twilight 5:40 AM EDT 8:09 PM EDT
Moon 8:46 AM EDT (10/6) 7:43 PM EDT (10/6)
Length of Visible Light 12h 27m
Length of Day
11h 35m
Waxing Crescent, 3% of the Moon is Illuminated
Oct 6
Waxing Crescent
Oct 11
First Quarter
Oct 18
Full
Oct 26
Last Quarter
Nov 3
New

Hourly Weather History & Observations

Time (EDT) Temp. Heat Index Dew Point Humidity Pressure Visibility Wind Dir Wind Speed Gust Speed Precip Events Conditions
12:15 AM 73.4 °F - 66.4 °F 79% 30.06 in 10.0 mi Calm Calm - N/A   Clear
12:35 AM 71.8 °F - 66.4 °F 83% 30.06 in 10.0 mi Calm Calm - N/A   Clear
12:55 AM 70.7 °F - 64.8 °F 81% 30.06 in 10.0 mi Calm Calm - N/A   Clear
1:15 AM 71.6 °F - 66.2 °F 83% 30.06 in 10.0 mi Calm Calm - N/A   Clear
1:35 AM 71.6 °F - 66.0 °F 82% 30.06 in 10.0 mi Calm Calm - N/A   Clear
1:55 AM 72.0 °F - 66.2 °F 82% 30.06 in 10.0 mi Calm Calm - N/A   Clear
2:15 AM 72.0 °F - 66.2 °F 82% 30.05 in 10.0 mi SSE 3.5 mph - N/A   Clear
2:35 AM 72.5 °F - 66.2 °F 81% 30.05 in 10.0 mi South 4.6 mph - N/A   Clear
2:55 AM 72.9 °F - 65.8 °F 79% 30.05 in 10.0 mi South 4.6 mph - N/A   Clear
3:15 AM 72.9 °F - 65.5 °F 78% 30.04 in 10.0 mi South 5.8 mph - N/A   Clear
3:35 AM 72.7 °F - 65.3 °F 78% 30.04 in 10.0 mi South 3.5 mph - N/A   Clear
3:55 AM 72.5 °F - 64.9 °F 77% 30.04 in 10.0 mi Calm Calm - N/A   Clear
4:15 AM 72.3 °F - 64.4 °F 76% 30.04 in 10.0 mi Calm Calm - N/A   Clear
4:35 AM 70.2 °F - 63.9 °F 80% 30.04 in 10.0 mi Calm Calm - N/A   Clear
4:55 AM 70.3 °F - 63.7 °F 79% 30.04 in 10.0 mi Calm Calm - N/A   Clear
5:15 AM 69.6 °F - 63.9 °F 82% 30.04 in 10.0 mi Calm Calm - N/A   Clear
5:35 AM 70.0 °F - 64.4 °F 82% 30.05 in 10.0 mi Calm Calm - N/A   Clear
5:55 AM 70.7 °F - 64.4 °F 80% 30.05 in 10.0 mi Calm Calm - N/A   Clear
6:15 AM 70.0 °F - 63.7 °F 80% 30.05 in 10.0 mi Calm Calm - N/A   Clear
6:35 AM 70.0 °F - 64.4 °F 82% 30.06 in 10.0 mi South 3.5 mph - N/A   Scattered Clouds
6:55 AM 70.5 °F - 64.4 °F 81% 30.06 in 10.0 mi SSE 3.5 mph - N/A   Mostly Cloudy
7:15 AM 70.3 °F - 64.8 °F 82% 30.06 in 10.0 mi Calm Calm - N/A   Mostly Cloudy
7:35 AM 70.7 °F - 65.5 °F 83% 30.06 in 10.0 mi SSE 4.6 mph - N/A   Mostly Cloudy
7:55 AM 71.6 °F - 65.7 °F 81% 30.07 in 10.0 mi Calm Calm - N/A   Scattered Clouds
8:15 AM 72.5 °F - 65.7 °F 79% 30.07 in 7.0 mi Calm Calm - N/A   Clear
8:35 AM 73.4 °F - 65.8 °F 77% 30.07 in 10.0 mi South 3.5 mph - N/A   Clear
8:55 AM 74.3 °F - 65.1 °F 73% 30.08 in 10.0 mi Calm Calm - N/A   Clear
9:15 AM 76.1 °F - 64.4 °F 67% 30.08 in 10.0 mi SSW 5.8 mph - N/A   Clear
9:35 AM 77.7 °F - 64.0 °F 63% 30.08 in 10.0 mi SSW 5.8 mph - N/A   Clear
9:55 AM 78.8 °F - 63.7 °F 60% 30.08 in 10.0 mi SSW 4.6 mph - N/A   Clear
10:15 AM 80.1 °F 81.5 °F 63.1 °F 56% 30.08 in 10.0 mi South 5.8 mph - N/A   Clear
10:35 AM 81.5 °F 82.8 °F 63.1 °F 54% 30.08 in 10.0 mi South 4.6 mph - N/A   Clear
10:55 AM 82.4 °F 83.5 °F 63.1 °F 52% 30.08 in 10.0 mi South 4.6 mph - N/A   Clear
11:15 AM 83.7 °F 84.7 °F 63.0 °F 50% 30.08 in 10.0 mi South 4.6 mph - N/A   Clear
11:35 AM 84.0 °F 84.7 °F 62.6 °F 48% 30.07 in 10.0 mi SSW 5.8 mph - N/A   Clear
11:55 AM 85.3 °F 85.9 °F 62.2 °F 46% 30.07 in 10.0 mi SW 8.1 mph - N/A   Clear
12:15 PM 86.2 °F 86.8 °F 62.2 °F 45% 30.06 in 10.0 mi SW 8.1 mph - N/A   Clear
12:35 PM 86.9 °F 86.7 °F 60.8 °F 41% 30.06 in 10.0 mi SW 9.2 mph - N/A   Clear
12:55 PM 87.3 °F 87.0 °F 60.4 °F 40% 30.05 in 10.0 mi South 8.1 mph - N/A   Clear
1:15 PM 88.0 °F 87.4 °F 59.4 °F 38% 30.04 in 10.0 mi South 11.5 mph - N/A   Clear
1:35 PM 88.0 °F 87.4 °F 59.7 °F 38% 30.03 in 10.0 mi SSW 9.2 mph - N/A   Clear
1:55 PM 87.4 °F 87.4 °F 61.0 °F 41% 30.02 in 10.0 mi South 9.2 mph - N/A   Scattered Clouds
2:15 PM 89.1 °F 88.8 °F 60.6 °F 38% 30.02 in 10.0 mi South 9.2 mph - N/A   Scattered Clouds
2:35 PM 89.6 °F 89.5 °F 60.8 °F 38% 30.01 in 10.0 mi SSE 10.4 mph - N/A   Scattered Clouds
2:55 PM 88.3 °F 88.4 °F 61.3 °F 40% 30.00 in 10.0 mi South 10.4 mph - N/A   Scattered Clouds
3:15 PM 88.0 °F 88.4 °F 62.1 °F 42% 30.00 in 10.0 mi SSE 11.5 mph - N/A   Clear
3:35 PM 87.8 °F 87.9 °F 61.2 °F 41% 29.99 in 10.0 mi SSE 10.4 mph - N/A   Clear
3:55 PM 87.3 °F 87.5 °F 61.9 °F 42% 29.99 in 10.0 mi SE 11.5 mph - N/A   Clear
4:15 PM 86.5 °F 87.3 °F 62.8 °F 45% 29.99 in 10.0 mi SSE 10.4 mph - N/A   Clear
4:35 PM 86.4 °F 86.8 °F 62.1 °F 44% 29.99 in 10.0 mi SSE 10.4 mph - N/A   Clear
4:55 PM 86.0 °F 86.3 °F 61.7 °F 44% 29.98 in 10.0 mi SE 11.5 mph 16.1 mph N/A   Clear
5:15 PM 85.3 °F 85.7 °F 61.7 °F 45% 29.98 in 10.0 mi SSE 10.4 mph - N/A   Clear
5:35 PM 84.2 °F 84.8 °F 61.9 °F 47% 29.98 in 10.0 mi SE 9.2 mph - N/A   Clear
5:55 PM 84.2 °F 84.6 °F 61.5 °F 46% 29.98 in 10.0 mi SE 6.9 mph - N/A   Clear
6:15 PM 82.2 °F 84.0 °F 65.3 °F 56% 29.97 in 10.0 mi East 6.9 mph - N/A   Clear
6:35 PM 79.9 °F - 66.4 °F 63% 29.98 in 10.0 mi ESE 5.8 mph - N/A   Clear
6:55 PM 77.7 °F - 66.4 °F 68% 29.98 in 10.0 mi East 5.8 mph - N/A   Clear
7:15 PM 74.8 °F - 67.1 °F 77% 29.98 in 10.0 mi East 4.6 mph - N/A   Clear
7:35 PM 75.4 °F - 68.0 °F 78% 29.98 in 10.0 mi ESE 5.8 mph - N/A   Clear
7:55 PM 74.7 °F - 67.5 °F 78% 29.99 in 10.0 mi ESE 3.5 mph - N/A   Clear
8:15 PM 74.3 °F - 67.3 °F 79% 29.99 in 10.0 mi ESE 4.6 mph - N/A   Clear
8:35 PM 74.3 °F - 66.7 °F 77% 29.99 in 10.0 mi ESE 4.6 mph - N/A   Scattered Clouds
8:55 PM 74.8 °F - 66.6 °F 75% 29.99 in 10.0 mi ESE 6.9 mph - N/A   Clear
9:15 PM 75.6 °F - 65.7 °F 71% 29.99 in 10.0 mi SE 6.9 mph - N/A   Clear
9:35 PM 76.6 °F - 65.5 °F 68% 30.00 in 10.0 mi SSE 9.2 mph - N/A   Clear
9:55 PM 77.0 °F - 65.3 °F 67% 30.01 in 10.0 mi SSE 10.4 mph - N/A   Clear
10:15 PM 77.0 °F - 65.3 °F 67% 30.00 in 10.0 mi SSE 8.1 mph 16.1 mph N/A   Clear
10:35 PM 77.0 °F - 65.5 °F 67% 30.00 in 10.0 mi SSE 10.4 mph - N/A   Clear
10:55 PM 77.0 °F - 65.7 °F 68% 30.00 in 10.0 mi SSE 11.5 mph - N/A   Clear
11:15 PM 76.8 °F - 65.7 °F 68% 30.00 in 10.0 mi SSE 9.2 mph - N/A   Scattered Clouds
11:35 PM 76.6 °F - 65.8 °F 69% 29.99 in 10.0 mi SSE 9.2 mph - N/A   Scattered Clouds
11:55 PM 76.5 °F - 65.8 °F 70% 29.99 in 10.0 mi SSE 10.4 mph - N/A   Scattered Clouds